UAL194 KJFK-KPIT

Flight info

Callsign UAL194
Flight time 1h 18m
Altitude 36000
Route DEEZZ5 CANDR J60 PSB HAYNZ7
Aircraft B738/M-SDE2E3FGHIRWXY/L

Departure

Time 2026-05-07 15:40
Airport John F. Kennedy International Airport (KJFK)

Arrival

Time 2026-05-07 16:59
Airport Pittsburgh International Airport (KPIT)
Time Latitude Longitude Altitude Speed Heading
2026-05-07 14:53 40.64046 -73.78274 21 ft 0 kts 61°
2026-05-07 15:07 40.64045 -73.78274 31 ft 0 kts 61°
2026-05-07 15:07 40.64045 -73.78275 31 ft 0 kts 61°
2026-05-07 15:19 40.64047 -73.78272 21 ft 1 kts 61°
2026-05-07 15:19 40.64047 -73.78270 21 ft 1 kts 61°
2026-05-07 15:19 40.64043 -73.78280 21 ft 2 kts 61°
2026-05-07 15:20 40.64036 -73.78298 23 ft 2 kts 61°
2026-05-07 15:20 40.64028 -73.78317 21 ft 2 kts 61°
2026-05-07 15:20 40.64020 -73.78336 23 ft 2 kts 61°
2026-05-07 15:20 40.64013 -73.78354 23 ft 2 kts 61°
2026-05-07 15:21 40.64009 -73.78375 22 ft 2 kts 118°
2026-05-07 15:21 40.64021 -73.78390 21 ft 2 kts 179°
2026-05-07 15:21 40.64026 -73.78391 25 ft 0 kts 200°
2026-05-07 15:23 40.64027 -73.78391 25 ft 0 kts 205°
2026-05-07 15:25 40.64036 -73.78382 25 ft 2 kts 229°
2026-05-07 15:27 40.64037 -73.78381 25 ft 2 kts 229°
2026-05-07 15:27 40.64040 -73.78375 23 ft 1 kts 229°
2026-05-07 15:27 40.64031 -73.78384 22 ft 2 kts 212°
2026-05-07 15:27 40.64022 -73.78388 21 ft 1 kts 195°
2026-05-07 15:28 40.64015 -73.78388 22 ft 1 kts 178°
2026-05-07 15:28 40.64005 -73.78385 22 ft 2 kts 168°
2026-05-07 15:28 40.63985 -73.78377 21 ft 4 kts 163°
2026-05-07 15:28 40.63950 -73.78363 23 ft 7 kts 163°
2026-05-07 15:29 40.63899 -73.78345 22 ft 9 kts 165°
2026-05-07 15:29 40.63833 -73.78329 22 ft 10 kts 173°
2026-05-07 15:29 40.63762 -73.78334 22 ft 10 kts 187°
2026-05-07 15:29 40.63714 -73.78340 24 ft 0 kts 185°
2026-05-07 15:30 40.63713 -73.78340 24 ft 0 kts 185°
2026-05-07 15:30 40.63703 -73.78342 24 ft 3 kts 185°
2026-05-07 15:30 40.63677 -73.78345 23 ft 5 kts 185°
2026-05-07 15:30 40.63637 -73.78353 22 ft 6 kts 197°
2026-05-07 15:31 40.63590 -73.78380 22 ft 8 kts 206°
2026-05-07 15:31 40.63533 -73.78414 23 ft 9 kts 193°
2026-05-07 15:31 40.63480 -73.78388 25 ft 9 kts 136°
2026-05-07 15:31 40.63446 -73.78318 23 ft 10 kts 120°
2026-05-07 15:32 40.63406 -73.78227 25 ft 13 kts 120°
2026-05-07 15:32 40.63358 -73.78115 24 ft 15 kts 120°
2026-05-07 15:32 40.63317 -73.78019 23 ft 8 kts 124°
2026-05-07 15:32 40.63273 -73.77993 25 ft 4 kts 182°
2026-05-07 15:33 40.63247 -73.77998 24 ft 4 kts 188°
2026-05-07 15:33 40.63215 -73.78005 25 ft 5 kts 188°
2026-05-07 15:33 40.63170 -73.78014 25 ft 8 kts 189°
2026-05-07 15:33 40.63106 -73.78039 24 ft 11 kts 202°
2026-05-07 15:34 40.63020 -73.78086 25 ft 15 kts 202°
2026-05-07 15:34 40.62939 -73.78161 26 ft 14 kts 213°
2026-05-07 15:34 40.62846 -73.78236 22 ft 17 kts 211°
2026-05-07 15:34 40.62744 -73.78320 23 ft 18 kts 212°
2026-05-07 15:35 40.62633 -73.78411 25 ft 20 kts 212°
2026-05-07 15:35 40.62513 -73.78504 23 ft 21 kts 210°
2026-05-07 15:35 40.62396 -73.78593 23 ft 17 kts 208°
2026-05-07 15:35 40.62298 -73.78664 23 ft 12 kts 191°
2026-05-07 15:36 40.62280 -73.78655 26 ft 0 kts 139°
2026-05-07 15:37 40.62279 -73.78654 26 ft 0 kts 139°
2026-05-07 15:37 40.62278 -73.78652 26 ft 1 kts 139°
2026-05-07 15:38 40.62273 -73.78647 26 ft 1 kts 139°
2026-05-07 15:38 40.62266 -73.78639 24 ft 1 kts 137°
2026-05-07 15:38 40.62259 -73.78629 24 ft 2 kts 133°
2026-05-07 15:38 40.62249 -73.78614 27 ft 3 kts 133°
2026-05-07 15:39 40.62238 -73.78592 28 ft 2 kts 113°
2026-05-07 15:39 40.62234 -73.78563 28 ft 4 kts 90°
2026-05-07 15:39 40.62253 -73.78524 25 ft 6 kts 39°
2026-05-07 15:39 40.62287 -73.78495 26 ft 6 kts 28°
2026-05-07 15:40 40.62460 -73.78375 26 ft 61 kts 27°
2026-05-07 15:40 40.63034 -73.78038 24 ft 115 kts 14°
2026-05-07 15:40 40.63916 -73.77727 94 ft 142 kts 14°
2026-05-07 15:40 40.64757 -73.77440 971 ft 103 kts
2026-05-07 15:41 40.65555 -73.77259 1352 ft 109 kts
2026-05-07 15:41 40.66307 -73.77159 1608 ft 121 kts 348°
2026-05-07 15:41 40.67167 -73.77430 1775 ft 131 kts 348°
2026-05-07 15:41 40.68124 -73.77701 2075 ft 152 kts 347°
2026-05-07 15:42 40.69195 -73.78002 2605 ft 165 kts 347°
2026-05-07 15:42 40.70365 -73.78340 3141 ft 181 kts 347°
2026-05-07 15:42 40.71645 -73.78722 3683 ft 195 kts 347°
2026-05-07 15:42 40.73023 -73.79114 4250 ft 211 kts 347°
2026-05-07 15:43 40.74515 -73.79515 4816 ft 228 kts 347°
2026-05-07 15:43 40.76173 -73.79599 5013 ft 253 kts 12°
2026-05-07 15:43 40.77661 -73.78352 5014 ft 265 kts 47°
2026-05-07 15:43 40.78374 -73.76081 5008 ft 276 kts 77°
2026-05-07 15:44 40.78511 -73.73539 4996 ft 279 kts 85°
2026-05-07 15:44 40.78522 -73.70962 4989 ft 280 kts 87°
2026-05-07 15:44 40.78507 -73.68389 4983 ft 280 kts 87°
2026-05-07 15:44 40.78483 -73.65819 4984 ft 281 kts 87°
2026-05-07 15:45 40.78458 -73.63228 4983 ft 284 kts 87°
2026-05-07 15:45 40.78439 -73.60613 5146 ft 286 kts 87°
2026-05-07 15:45 40.78429 -73.57970 5865 ft 291 kts 88°
2026-05-07 15:45 40.78448 -73.55249 6582 ft 301 kts 88°
2026-05-07 15:46 40.78578 -73.49560 7944 ft 319 kts 88°
2026-05-07 15:46 40.78682 -73.46647 8657 ft 326 kts 88°
2026-05-07 15:46 40.78811 -73.43624 9430 ft 333 kts 88°
2026-05-07 15:47 40.79079 -73.40559 10083 ft 341 kts 71°
2026-05-07 15:47 40.80261 -73.37854 10590 ft 345 kts 40°
2026-05-07 15:47 40.82255 -73.36159 10949 ft 342 kts
2026-05-07 15:47 40.84575 -73.35895 11307 ft 333 kts 341°
2026-05-07 15:48 40.86809 -73.36672 11806 ft 333 kts 330°
2026-05-07 15:48 40.89022 -73.37765 12438 ft 338 kts 328°
2026-05-07 15:48 40.91220 -73.38928 13098 ft 343 kts 327°
2026-05-07 15:48 40.93422 -73.40105 13773 ft 348 kts 327°
2026-05-07 15:49 40.95689 -73.41304 14402 ft 353 kts 327°
2026-05-07 15:49 40.97983 -73.42521 15038 ft 357 kts 326°
2026-05-07 15:49 41.00299 -73.43759 15701 ft 361 kts 327°
2026-05-07 15:49 41.02636 -73.45018 16339 ft 364 kts 327°
2026-05-07 15:50 41.04993 -73.46294 16997 ft 368 kts 327°
2026-05-07 15:50 41.07355 -73.47624 17648 ft 367 kts 322°
2026-05-07 15:50 41.09294 -73.49599 18263 ft 341 kts 299°
2026-05-07 15:50 41.10471 -73.52245 18839 ft 330 kts 286°
2026-05-07 15:51 41.11313 -73.55061 19436 ft 327 kts 281°
2026-05-07 15:51 41.12014 -73.57919 20059 ft 326 kts 279°
2026-05-07 15:51 41.12673 -73.60796 20703 ft 326 kts 278°
2026-05-07 15:51 41.13298 -73.63673 21334 ft 324 kts 276°
2026-05-07 15:52 41.13840 -73.66564 22013 ft 322 kts 275°
2026-05-07 15:52 41.14354 -73.69451 22655 ft 322 kts 274°
2026-05-07 15:52 41.14750 -73.72345 23302 ft 315 kts 268°
2026-05-07 15:52 41.14850 -73.75221 23858 ft 312 kts 265°
2026-05-07 15:53 41.14963 -73.78099 24377 ft 313 kts 266°
2026-05-07 15:53 41.15131 -73.80982 24876 ft 314 kts 266°
2026-05-07 15:53 41.15209 -73.83864 25375 ft 310 kts 261°
2026-05-07 15:53 41.15039 -73.86702 25855 ft 309 kts 259°
2026-05-07 15:54 41.14843 -73.89545 26326 ft 310 kts 259°
2026-05-07 15:54 41.14642 -73.92395 26778 ft 311 kts 259°
2026-05-07 15:54 41.14578 -73.95282 27223 ft 316 kts 264°
2026-05-07 15:54 41.14721 -73.98212 27664 ft 321 kts 268°
2026-05-07 15:55 41.15118 -74.01170 28163 ft 329 kts 272°
2026-05-07 15:55 41.15691 -74.04127 28594 ft 332 kts 273°
2026-05-07 15:55 41.16216 -74.07103 29034 ft 330 kts 271°
2026-05-07 15:55 41.16662 -74.10092 29483 ft 331 kts 270°
2026-05-07 15:56 41.17039 -74.13095 29900 ft 328 kts 268°
2026-05-07 15:56 41.17315 -74.16106 30260 ft 330 kts 268°
2026-05-07 15:56 41.17608 -74.19134 30607 ft 332 kts 268°
2026-05-07 15:56 41.17904 -74.22177 30949 ft 333 kts 268°
2026-05-07 15:57 41.18194 -74.25234 31301 ft 335 kts 268°
2026-05-07 15:57 41.18483 -74.28308 31647 ft 335 kts 268°
2026-05-07 15:57 41.18774 -74.31363 32175 ft 333 kts 268°
2026-05-07 15:57 41.19050 -74.34402 32659 ft 329 kts 267°
2026-05-07 15:58 41.19160 -74.37401 33224 ft 323 kts 263°
2026-05-07 15:58 41.19088 -74.40355 33710 ft 318 kts 260°
2026-05-07 15:58 41.18843 -74.43248 34158 ft 314 kts 257°
2026-05-07 15:58 41.18588 -74.45132 34418 ft 312 kts 255°
2026-05-07 15:59 41.18068 -74.47922 34770 ft 311 kts 252°
2026-05-07 15:59 41.17388 -74.50641 35103 ft 311 kts 249°
2026-05-07 15:59 41.16548 -74.53286 35433 ft 311 kts 246°
2026-05-07 15:59 41.15553 -74.55842 35756 ft 313 kts 243°
2026-05-07 16:00 41.14428 -74.58319 35909 ft 312 kts 242°
2026-05-07 16:00 41.12193 -74.63217 35956 ft 309 kts 243°
2026-05-07 16:01 41.09961 -74.68082 35952 ft 309 kts 243°
2026-05-07 16:01 41.07727 -74.72946 35945 ft 309 kts 243°
2026-05-07 16:02 41.05490 -74.77810 35950 ft 309 kts 242°
2026-05-07 16:02 41.03250 -74.82670 35931 ft 309 kts 242°
2026-05-07 16:03 41.01006 -74.87533 35934 ft 309 kts 242°
2026-05-07 16:03 40.98760 -74.92393 35881 ft 309 kts 243°
2026-05-07 16:04 40.96521 -74.97227 35933 ft 308 kts 243°
2026-05-07 16:04 40.94289 -75.02048 35929 ft 307 kts 243°
2026-05-07 16:05 40.92058 -75.06863 35975 ft 308 kts 243°
2026-05-07 16:05 40.89812 -75.11716 35945 ft 309 kts 243°
2026-05-07 16:06 40.87589 -75.16517 35939 ft 305 kts 243°
2026-05-07 16:06 40.85391 -75.21244 35930 ft 300 kts 243°
2026-05-07 16:06 40.84300 -75.23590 35936 ft 299 kts 243°
2026-05-07 16:07 40.83211 -75.25931 35938 ft 299 kts 243°
2026-05-07 16:07 40.82125 -75.28265 35897 ft 297 kts 243°
2026-05-07 16:07 40.81044 -75.30587 35936 ft 297 kts 243°
2026-05-07 16:07 40.79961 -75.32912 35935 ft 297 kts 243°
2026-05-07 16:08 40.78880 -75.35232 35941 ft 297 kts 243°
2026-05-07 16:08 40.77810 -75.37553 35934 ft 295 kts 245°
2026-05-07 16:08 40.77145 -75.40091 35965 ft 296 kts 259°
2026-05-07 16:09 40.77588 -75.45603 35955 ft 315 kts 276°
2026-05-07 16:09 40.79334 -75.50982 35955 ft 335 kts 287°
2026-05-07 16:10 40.82041 -75.56088 35961 ft 340 kts 289°
2026-05-07 16:10 40.83237 -75.58698 35982 ft 320 kts 278°
2026-05-07 16:10 40.83592 -75.61466 35985 ft 299 kts 260°
2026-05-07 16:10 40.83040 -75.64067 35980 ft 297 kts 246°
2026-05-07 16:11 40.82018 -75.66440 35951 ft 298 kts 243°
2026-05-07 16:11 40.80937 -75.68776 35955 ft 297 kts 243°
2026-05-07 16:11 40.79914 -75.71147 35954 ft 297 kts 245°
2026-05-07 16:11 40.78980 -75.73583 35950 ft 297 kts 247°
2026-05-07 16:12 40.78165 -75.76081 35961 ft 296 kts 250°
2026-05-07 16:12 40.77530 -75.78663 35996 ft 296 kts 253°
2026-05-07 16:12 40.76968 -75.81294 35955 ft 298 kts 253°
2026-05-07 16:12 40.76359 -75.83911 35953 ft 299 kts 252°
2026-05-07 16:13 40.75715 -75.86514 35951 ft 298 kts 252°
2026-05-07 16:13 40.75079 -75.89125 35952 ft 299 kts 252°
2026-05-07 16:13 40.74456 -75.91738 35950 ft 299 kts 252°
2026-05-07 16:13 40.73831 -75.94354 35952 ft 299 kts 252°
2026-05-07 16:14 40.73201 -75.96964 35951 ft 299 kts 252°
2026-05-07 16:14 40.72571 -75.99571 35954 ft 297 kts 252°
2026-05-07 16:14 40.71943 -76.02173 35947 ft 299 kts 252°
2026-05-07 16:14 40.71314 -76.04777 35948 ft 298 kts 252°
2026-05-07 16:15 40.70687 -76.07371 35936 ft 296 kts 252°
2026-05-07 16:15 40.70060 -76.09957 35938 ft 296 kts 252°
2026-05-07 16:15 40.69432 -76.12547 35937 ft 296 kts 252°
2026-05-07 16:15 40.68812 -76.15100 35975 ft 296 kts 252°
2026-05-07 16:16 40.68181 -76.17700 35945 ft 299 kts 252°
2026-05-07 16:16 40.67596 -76.20322 35950 ft 297 kts 256°
2026-05-07 16:16 40.67261 -76.23019 35953 ft 301 kts 260°
2026-05-07 16:17 40.67350 -76.28580 35951 ft 309 kts 270°
2026-05-07 16:17 40.68174 -76.34173 35950 ft 311 kts 271°
2026-05-07 16:18 40.69004 -76.39777 35951 ft 312 kts 272°
2026-05-07 16:18 40.69842 -76.45380 35942 ft 311 kts 272°
2026-05-07 16:19 40.70672 -76.50986 35989 ft 312 kts 272°
2026-05-07 16:19 40.71507 -76.56623 35947 ft 313 kts 272°
2026-05-07 16:20 40.72338 -76.62261 35944 ft 314 kts 272°
2026-05-07 16:20 40.73166 -76.67904 35952 ft 314 kts 272°
2026-05-07 16:21 40.73993 -76.73550 35950 ft 314 kts 272°
2026-05-07 16:21 40.74811 -76.79164 35955 ft 314 kts 272°
2026-05-07 16:22 40.75632 -76.84814 35958 ft 314 kts 272°
2026-05-07 16:22 40.76451 -76.90479 35964 ft 315 kts 272°
2026-05-07 16:23 40.77271 -76.96157 35967 ft 315 kts 272°
2026-05-07 16:23 40.78087 -77.01835 35965 ft 315 kts 272°
2026-05-07 16:24 40.78900 -77.07514 35970 ft 315 kts 272°
2026-05-07 16:24 40.79711 -77.13194 35965 ft 315 kts 272°
2026-05-07 16:25 40.80519 -77.18881 35964 ft 315 kts 272°
2026-05-07 16:25 40.81324 -77.24570 35954 ft 317 kts 272°
2026-05-07 16:26 40.82130 -77.30280 35965 ft 316 kts 272°
2026-05-07 16:26 40.82932 -77.35983 35954 ft 316 kts 272°
2026-05-07 16:27 40.83732 -77.41695 35959 ft 316 kts 272°
2026-05-07 16:27 40.84528 -77.47398 35965 ft 315 kts 272°
2026-05-07 16:28 40.85321 -77.53110 35951 ft 316 kts 272°
2026-05-07 16:28 40.86113 -77.58824 35958 ft 316 kts 272°
2026-05-07 16:29 40.86902 -77.64555 35962 ft 319 kts 272°
2026-05-07 16:29 40.87698 -77.70342 35959 ft 320 kts 272°
2026-05-07 16:30 40.88490 -77.76125 35960 ft 320 kts 272°
2026-05-07 16:30 40.89277 -77.81897 35945 ft 319 kts 272°
2026-05-07 16:31 40.90061 -77.87672 35946 ft 320 kts 272°
2026-05-07 16:31 40.90843 -77.93450 35944 ft 319 kts 272°
2026-05-07 16:32 40.91560 -77.99256 35953 ft 320 kts 269°
2026-05-07 16:32 40.91723 -78.02190 35512 ft 319 kts 266°
2026-05-07 16:32 40.91809 -78.05105 35139 ft 316 kts 266°
2026-05-07 16:32 40.91907 -78.08008 34779 ft 315 kts 266°
2026-05-07 16:33 40.92004 -78.10894 34424 ft 313 kts 266°
2026-05-07 16:33 40.92093 -78.13751 34074 ft 310 kts 266°
2026-05-07 16:33 40.92178 -78.16546 33690 ft 308 kts 265°
2026-05-07 16:33 40.92266 -78.19373 33340 ft 307 kts 265°
2026-05-07 16:34 40.92352 -78.22191 32988 ft 307 kts 265°
2026-05-07 16:34 40.92438 -78.25015 32643 ft 308 kts 265°
2026-05-07 16:34 40.92524 -78.27846 32289 ft 309 kts 265°
2026-05-07 16:34 40.92610 -78.30694 31946 ft 311 kts 265°
2026-05-07 16:35 40.92694 -78.33556 31587 ft 313 kts 265°
2026-05-07 16:35 40.92780 -78.36441 31235 ft 315 kts 265°
2026-05-07 16:35 40.92865 -78.39343 30876 ft 317 kts 265°
2026-05-07 16:35 40.92950 -78.42261 30512 ft 319 kts 265°
2026-05-07 16:36 40.93034 -78.45204 30154 ft 321 kts 264°
2026-05-07 16:36 40.93119 -78.48163 29757 ft 323 kts 265°
2026-05-07 16:36 40.93204 -78.51134 29389 ft 322 kts 265°
2026-05-07 16:36 40.93287 -78.54084 29026 ft 321 kts 265°
2026-05-07 16:37 40.93369 -78.57033 28661 ft 320 kts 265°
2026-05-07 16:37 40.93449 -78.59974 28301 ft 320 kts 265°
2026-05-07 16:37 40.93529 -78.62907 27940 ft 319 kts 265°
2026-05-07 16:37 40.93608 -78.65840 27580 ft 318 kts 265°
2026-05-07 16:38 40.93687 -78.68759 27240 ft 319 kts 266°
2026-05-07 16:38 40.93763 -78.71730 26865 ft 330 kts 266°
2026-05-07 16:38 40.93843 -78.74760 26494 ft 328 kts 267°
2026-05-07 16:38 40.93924 -78.77765 26119 ft 326 kts 267°
2026-05-07 16:39 40.94001 -78.80716 25759 ft 324 kts 267°
2026-05-07 16:39 40.94075 -78.83694 25391 ft 323 kts 267°
2026-05-07 16:39 40.94149 -78.86661 25026 ft 322 kts 267°
2026-05-07 16:39 40.94224 -78.89618 24663 ft 321 kts 267°
2026-05-07 16:40 40.94297 -78.92563 24301 ft 320 kts 267°
2026-05-07 16:40 40.94368 -78.95500 23941 ft 319 kts 267°
2026-05-07 16:40 40.94439 -78.98425 23579 ft 317 kts 267°
2026-05-07 16:40 40.94509 -79.01339 23190 ft 317 kts 267°
2026-05-07 16:41 40.94577 -79.04253 22832 ft 317 kts 267°
2026-05-07 16:41 40.94646 -79.07159 22481 ft 316 kts 268°
2026-05-07 16:41 40.94713 -79.10065 22117 ft 316 kts 268°
2026-05-07 16:41 40.94780 -79.12963 21774 ft 316 kts 268°
2026-05-07 16:42 40.94845 -79.15868 21413 ft 316 kts 268°
2026-05-07 16:42 40.94910 -79.18770 21059 ft 316 kts 268°
2026-05-07 16:42 40.94975 -79.21676 20703 ft 316 kts 268°
2026-05-07 16:42 40.95038 -79.24580 20350 ft 316 kts 268°
2026-05-07 16:43 40.95102 -79.27489 19991 ft 316 kts 269°
2026-05-07 16:43 40.95164 -79.30396 19649 ft 316 kts 269°
2026-05-07 16:43 40.95225 -79.33305 19290 ft 316 kts 269°
2026-05-07 16:43 40.95285 -79.36180 18947 ft 317 kts 269°
2026-05-07 16:44 40.95345 -79.39098 18585 ft 317 kts 269°
2026-05-07 16:44 40.95406 -79.42017 18218 ft 317 kts 269°
2026-05-07 16:44 40.95465 -79.44934 17840 ft 318 kts 269°
2026-05-07 16:44 40.95523 -79.47855 17480 ft 318 kts 269°
2026-05-07 16:45 40.95580 -79.50775 17152 ft 317 kts 270°
2026-05-07 16:45 40.95618 -79.52705 16921 ft 317 kts 270°
2026-05-07 16:45 40.95674 -79.55620 16554 ft 317 kts 269°
2026-05-07 16:45 40.95748 -79.59505 16099 ft 316 kts 270°
2026-05-07 16:46 40.95802 -79.62404 15736 ft 315 kts 270°
2026-05-07 16:46 40.95837 -79.64325 15488 ft 315 kts 269°
2026-05-07 16:46 40.95544 -79.67163 15134 ft 313 kts 251°
2026-05-07 16:46 40.94452 -79.69660 14782 ft 318 kts 232°
2026-05-07 16:47 40.92847 -79.71698 14420 ft 321 kts 226°
2026-05-07 16:47 40.91158 -79.73635 14056 ft 321 kts 225°
2026-05-07 16:47 40.89473 -79.75572 13684 ft 321 kts 225°
2026-05-07 16:47 40.87814 -79.77539 13304 ft 321 kts 226°
2026-05-07 16:48 40.86105 -79.79429 12936 ft 323 kts 217°
2026-05-07 16:48 40.83997 -79.80543 12570 ft 331 kts 199°
2026-05-07 16:48 40.81741 -79.81173 12196 ft 331 kts 197°
2026-05-07 16:48 40.79478 -79.81729 11828 ft 330 kts 197°
2026-05-07 16:49 40.77230 -79.82316 11441 ft 328 kts 197°
2026-05-07 16:49 40.75007 -79.82934 11071 ft 326 kts 198°
2026-05-07 16:49 40.72785 -79.83546 10699 ft 324 kts 197°
2026-05-07 16:49 40.70603 -79.84127 10335 ft 316 kts 197°
2026-05-07 16:50 40.68475 -79.84694 9978 ft 309 kts 197°
2026-05-07 16:50 40.66385 -79.85260 9457 ft 306 kts 197°
2026-05-07 16:50 40.64321 -79.85820 9064 ft 299 kts 197°
2026-05-07 16:50 40.62305 -79.86362 8723 ft 292 kts 197°
2026-05-07 16:51 40.60422 -79.87184 8386 ft 281 kts 206°
2026-05-07 16:51 40.58630 -79.88141 8068 ft 275 kts 206°
2026-05-07 16:51 40.56872 -79.89074 7762 ft 270 kts 206°
2026-05-07 16:51 40.55143 -79.89980 7448 ft 266 kts 206°
2026-05-07 16:52 40.53434 -79.90874 7148 ft 263 kts 205°
2026-05-07 16:52 40.51747 -79.91758 6853 ft 260 kts 205°
2026-05-07 16:52 40.50075 -79.92635 6548 ft 258 kts 205°
2026-05-07 16:52 40.48436 -79.93493 6261 ft 256 kts 205°
2026-05-07 16:53 40.46785 -79.94357 5958 ft 255 kts 204°
2026-05-07 16:53 40.45137 -79.95219 5669 ft 256 kts 205°
2026-05-07 16:53 40.43592 -79.96303 5393 ft 250 kts 216°
2026-05-07 16:53 40.41999 -79.97243 5118 ft 251 kts 209°
2026-05-07 16:54 40.40725 -79.98677 4879 ft 231 kts 239°
2026-05-07 16:54 40.40152 -80.00508 4618 ft 206 kts 255°
2026-05-07 16:54 40.39758 -80.02221 4403 ft 187 kts 252°
2026-05-07 16:54 40.39247 -80.03723 4198 ft 175 kts 240°
2026-05-07 16:55 40.38547 -80.04975 3988 ft 166 kts 233°
2026-05-07 16:55 40.37947 -80.06177 3806 ft 152 kts 257°
2026-05-07 16:55 40.37940 -80.07524 3640 ft 150 kts 285°
2026-05-07 16:55 40.38496 -80.08672 3486 ft 152 kts 314°
2026-05-07 16:56 40.39274 -80.09629 3314 ft 153 kts 313°
2026-05-07 16:56 40.40046 -80.10585 3118 ft 152 kts 313°
2026-05-07 16:56 40.41544 -80.12446 2778 ft 145 kts 313°
2026-05-07 16:57 40.42281 -80.13351 2615 ft 148 kts 312°
2026-05-07 16:57 40.43020 -80.14277 2484 ft 141 kts 313°
2026-05-07 16:57 40.43761 -80.15201 2337 ft 149 kts 314°
2026-05-07 16:57 40.44507 -80.16134 2108 ft 150 kts 313°
2026-05-07 16:58 40.45260 -80.17064 1890 ft 148 kts 313°
2026-05-07 16:58 40.46007 -80.17994 1673 ft 146 kts 313°
2026-05-07 16:58 40.46748 -80.18949 1475 ft 149 kts 316°
2026-05-07 16:58 40.47505 -80.19847 1303 ft 147 kts 312°
2026-05-07 16:59 40.48216 -80.20762 1150 ft 127 kts 314°
2026-05-07 16:59 40.48686 -80.21341 1149 ft 62 kts 316°
2026-05-07 16:59 40.48883 -80.21588 1147 ft 20 kts 316°
2026-05-07 16:59 40.48910 -80.21622 1147 ft 0 kts 316°
2026-05-07 17:00 40.48913 -80.21624 1147 ft 2 kts 316°
2026-05-07 17:00 40.48924 -80.21639 1148 ft 3 kts 316°
2026-05-07 17:01 40.48944 -80.21663 1149 ft 4 kts 316°
2026-05-07 17:01 40.48969 -80.21698 1151 ft 6 kts 310°
2026-05-07 17:01 40.48999 -80.21754 1149 ft 9 kts 299°
2026-05-07 17:01 40.49023 -80.21840 1151 ft 10 kts 284°
2026-05-07 17:02 40.49025 -80.21928 1153 ft 10 kts 270°
2026-05-07 17:02 40.49026 -80.22024 1154 ft 11 kts 271°
2026-05-07 17:02 40.49027 -80.22141 1154 ft 14 kts 271°
2026-05-07 17:02 40.49029 -80.22289 1154 ft 18 kts 270°
2026-05-07 17:03 40.49029 -80.22464 1154 ft 21 kts 270°
2026-05-07 17:03 40.49032 -80.22664 1154 ft 23 kts 271°
2026-05-07 17:03 40.49037 -80.22884 1154 ft 25 kts 272°
2026-05-07 17:03 40.49044 -80.23115 1154 ft 26 kts 272°
2026-05-07 17:04 40.49048 -80.23355 1154 ft 27 kts 270°
2026-05-07 17:04 40.49055 -80.23598 1154 ft 27 kts 273°
2026-05-07 17:04 40.49067 -80.23847 1154 ft 26 kts 281°
2026-05-07 17:04 40.49147 -80.23977 1156 ft 16 kts 322°
2026-05-07 17:05 40.49244 -80.24060 1156 ft 16 kts 343°
2026-05-07 17:05 40.49359 -80.24076 1156 ft 17 kts 354°
2026-05-07 17:05 40.49422 -80.24133 1156 ft 8 kts 287°
2026-05-07 17:05 40.49433 -80.24207 1156 ft 7 kts 265°
2026-05-07 17:06 40.49421 -80.24245 1156 ft 3 kts 232°
2026-05-07 17:06 40.49400 -80.24271 1156 ft 6 kts 223°
2026-05-07 17:06 40.49372 -80.24300 1156 ft 0 kts 219°